Weather in Bol'shoy Samovets

Russia / Voronezh Oblast     51°54′28″N   40°28′22″E
temp.,
°C
wind,
m/s
gust,
m/s
humid.,
%
clouds,
%
prec.,
mm/h
press.,
hPa
HPBL,
m
5 march, fri
fri500:000wsw51098100 0.1 1003482
03:00+1wsw61098100 0.2 1003499
06:000wnw51091100 0.1 1004552
09:00−3nw589496 0.1 1007494
12:00−2nw359186 0.0 1010453
15:00−1nw348776 0.1 1012592
18:00−4w229033 0.0 101321
21:00−6wnw129243 0.0 101521
6 march, sat
sat600:00−7nw129397 0.0 101621
03:00−8nne129398 0.0 101721
06:00−8e1193100 0.0 101621
09:00−6e1292100 0.0 101675
12:00−4ne1187100 0.0 1016272
15:00−3nne1186100 0.0 1014381
18:00−6ene119598 0.1 101421
21:00−6nw599499 1.9 1016395
7 march, sun
sun700:00−9nw489790 0.2 1017179
03:00−11wnw479468 0.2 1018120
06:00−11wsw49920 0.0 1018175
09:00−8sw6128612 0.0 1016507
12:00−4sw81476100 0.0 10131092
15:00−2sw91673100 0.0 10081199
18:00−3sw101891100 0.2 10041131
21:00−2wnw101594100 1.3 1005992
8 march, mon
mon800:00−7wsw478099 0.2 1006124
03:00−6sw5117987 0.2 1006261
06:00−6sw71379100 0.0 1004405
09:00−4sw71290100 0.0 1003557
12:00−2w8137889 0.3 10031616
15:00−5wnw8136887 0.5 10061304
18:00−9wnw513820 0.0 1009414
21:00−11w47870 0.0 1012125
9 march, tue
tue900:00−12w34870 0.0 101371
03:00−13w33890 0.0 101333
06:00−14w22903 0.0 101420
09:00−11nw119052 0.0 101480
12:00−8nnw2387100 0.0 1014364
15:00−8n4589100 0.1 1015610
18:00−10n3695100 0.1 1016248
21:00−14nnw5109398 0.1 1019290